Flag for Denmark Weather past 2 weeks in Copenhagen, Denmark

Now
27 °F

Clear.


Feels Like: 18 °F
Forecast: 30 / 34 °F
Wind: 8 mph from Southwest

Location: Koebenhavn-Kastrup Airport

Current Time: Dec 26, 2014 at 6:13:39 PM

Latest Report: Dec 26, 2014 at 5:50 PM


Visibility: 10 mi

Pressure: 30.21 "Hg

Humidity: 86%

Dew point: 23 °F

Location of CopenhagenLocation

Historic Weather in Copenhagen — Graph

°F

Copenhagen temperature yesterday

Maximum temperature yesterday: 39 °F (at 12:20 AM)
Minimum temperature yesterday: 25 °F (at 10:50 PM)
Average temperature yesterday: 32 °F

Past Weeks' High & Low Weather Summary

 TemperatureHumidityPressure
High52 °F (Dec 19, 1:50 AM)100% (Dec 18, 2:20 AM)30.33 "Hg (Dec 18, 2:20 AM)
Low18 °F (Dec 26, 6:50 AM)69% (Dec 25, 4:20 PM)28.97 "Hg (Dec 12, 4:20 PM)
Average40 °F89%29.63 "Hg
* Reported Dec 11 4:20 PM — Dec 26 4:20 PM, Copenhagen, Weather by CustomWeather, © 2014

Note: Actual official high and low records may vary slightly from our data, if they occured in-between our weather recording intervals... More about our weather records

Advertising

Copenhagen weather history for previous 24 hours

 ConditionsComfort  
Time TempWeatherWind HumidityBarometerVisibility
4:20 PM
Dec 26
28 °FPassing clouds.8 mph86%30.24 "HgN/A
3:50 PM28 °FPassing clouds.7 mph86%30.24 "HgN/A
3:20 PM28 °FPartly sunny.8 mph80%30.27 "HgN/A
2:50 PM30 °FPartly sunny.8 mph80%30.27 "HgN/A
2:20 PM30 °FScattered clouds.7 mph75%30.27 "HgN/A
1:50 PM28 °FPassing clouds.5 mph80%30.27 "HgN/A
1:20 PM28 °FPassing clouds.2 mph86%30.27 "HgN/A
12:50 PM28 °FPassing clouds.2 mph80%30.30 "HgN/A
12:20 PM27 °FPassing clouds.2 mph86%30.30 "HgN/A
11:50 AM27 °FPassing clouds.6 mph86%30.30 "HgN/A
11:20 AM25 °FPassing clouds.5 mph86%30.30 "HgN/A
10:50 AM25 °FPassing clouds.2 mph86%30.33 "HgN/A
10:20 AM21 °FPassing clouds.6 mph86%30.33 "HgN/A
9:50 AM21 °FPassing clouds.6 mph86%30.30 "HgN/A
9:20 AM21 °FPassing clouds.5 mph86%30.30 "HgN/A
8:50 AM19 °FPassing clouds.6 mph86%30.30 "HgN/A
8:20 AM19 °FPassing clouds.6 mph86%30.30 "HgN/A
7:50 AM19 °FPassing clouds.6 mph86%30.30 "HgN/A
7:20 AM18 °FPassing clouds.5 mph93%30.30 "HgN/A
6:50 AM18 °FPassing clouds.3 mph93%30.30 "HgN/A
6:20 AM19 °FPassing clouds.5 mph100%30.30 "HgN/A
5:50 AM19 °FPassing clouds.3 mph93%30.30 "HgN/A
5:20 AM19 °FPassing clouds.2 mph93%30.30 "HgN/A
4:50 AM21 °FPassing clouds.1 mph93%30.30 "HgN/A
3:50 AM21 °FClear.1 mph93%30.30 "Hg10 mi
3:20 AM19 °FClear.1 mph93%30.30 "Hg10 mi
2:50 AM23 °FClear.2 mph93%30.30 "Hg10 mi
2:20 AM21 °FClear.No wind93%30.27 "Hg10 mi
1:50 AM21 °FClear.5 mph86%30.27 "Hg10 mi
1:20 AM21 °FClear.7 mph86%30.27 "Hg10 mi
12:50 AM23 °FClear.6 mph86%30.27 "Hg10 mi
12:20 AM27 °FClear.7 mph80%30.27 "Hg10 mi
11:50 PM
Dec 25
27 °FClear.8 mph80%30.24 "Hg10 mi
11:20 PM25 °FClear.7 mph80%30.24 "Hg10 mi
10:50 PM25 °FClear.7 mph80%30.24 "Hg10 mi
10:20 PM27 °FClear.7 mph74%30.24 "Hg10 mi
9:50 PM27 °FClear.8 mph80%30.21 "Hg10 mi
9:20 PM28 °FPassing clouds.10 mph74%30.21 "HgN/A
8:50 PM27 °FClear.10 mph80%30.21 "Hg10 mi
8:20 PM27 °FPassing clouds.12 mph80%30.18 "HgN/A
7:50 PM28 °FPassing clouds.13 mph74%30.18 "HgN/A
7:20 PM28 °FPassing clouds.14 mph74%30.15 "HgN/A
6:50 PM28 °FClear.15 mph69%30.15 "Hg10 mi
6:20 PM28 °FPassing clouds.15 mph69%30.12 "HgN/A
Weather by CustomWeather, © 2014

See weather overviewHow to use our weather pages